Terminal Aerodrome Forecast
Issued by NWS

Home | Current Version | Previous Version | Graphics & Text | Print | Product List | Glossary On
Versions: 1 2 3 4 5 6 7 8 9 10 11 12 13 14 15 16 17 18 19 20
000
FTUS43 KBIS 252240 AAA
TAFDIK
TAF AMD
KDIK 252240Z 2523/2618 33017G21KT 6SM -TSRA BKN050CB
     FM260000 22010KT P6SM VCTS BKN080CB
     FM260300 18007KT P6SM SCT120=

USA.gov is the U.S. government's official web portal to all federal, state and local government web resources and services.